Вернуться в каталог

STARLINK-31231

АктивенСвязьVLEO
NORAD 59034·PAYLOAD·🇺🇸 United States

Запущен Feb 25, 2024 с Cape Canaveral Space Force Station

Loading…

Ближайшие Пролёты (ближайшие 24 часа)

TLE

СвежийSource: CelesTrak SupGP

Эпоха: Sep 14, 2026, 20:46 UTC

1 59034C 24038M   26257.86576389  .00060062  00000+0  21758-2 0  2577
2 59034  43.0034  35.2313 0001401 272.8858 312.7443 15.27543612    11

Отслеживайте STARLINK-31231 в реальном времени с AllMySat

Download on the App Store